�N����,����,����,����,����,�C��,���x,�~����,�S�V����,�ő�u�ԕ���,,,
,,,,,,,,,����,����,����,�N��
yyyy/mm/dd,hh:mm:ss,(16),16����,m/s,��,%,mm,KW/�u,(16),16����,m/s,Time
2013/9/1,1:00:00,1,�k�k��,2.2,13.8,98.6,2,0,16,�k,4.9,21
2013/9/1,2:00:00,16,�k,2.5,13.6,98.7,0,0,1,�k�k��,4.9,2
2013/9/1,3:00:00,16,�k,1.6,13.6,99,2,0,16,�k,3.9,0
2013/9/1,4:00:00,14,�k��,2.2,13.4,98.5,0.5,0,15,�k�k��,4.1,32
2013/9/1,5:00:00,14,�k��,2.3,13.3,98.7,1.5,0,13,���k��,4.3,31
2013/9/1,6:00:00,14,�k��,2.5,13.3,98.9,1,0.01,14,�k��,5.5,43
2013/9/1,7:00:00,14,�k��,3,13.7,98.9,1,0.05,14,�k��,5.5,35
2013/9/1,8:00:00,14,�k��,2.7,14.2,98.7,0.5,0.12,14,�k��,5.9,39
2013/9/1,9:00:00,16,�k,2.4,14.9,96.3,0.5,0.21,14,�k��,5.2,8
2013/9/1,10:00:00,16,�k,1.7,14.9,96.8,0,0.16,1,�k�k��,4,33
2013/9/1,11:00:00,1,�k�k��,1.8,15.4,96.6,0.5,0.21,2,�k��,4.2,8
2013/9/1,12:00:00,2,�k��,2,16.2,98.5,0,0.23,2,�k��,3.8,42
2013/9/1,13:00:00,3,���k��,1.4,16.1,93.8,0,0.3,3,���k��,3.7,39
2013/9/1,14:00:00,4,��,3.5,16.4,97.6,0,0.31,5,���쓌,5.4,55
2013/9/1,15:00:00,3,���k��,3.3,16.1,94.7,0,0.27,3,���k��,5.1,53
2013/9/1,16:00:00,3,���k��,3.5,15.8,94.3,0,0.15,2,�k��,5.5,58
2013/9/1,17:00:00,3,���k��,2.8,15.6,96,0,0.08,3,���k��,6.2,38
2013/9/1,18:00:00,3,���k��,2.7,15,96.8,0,0.03,2,�k��,4.6,50
2013/9/1,19:00:00,3,���k��,2.5,14.7,98.7,0,0,3,���k��,5.6,40
2013/9/1,20:00:00,3,���k��,2.5,14.6,99.2,0,0,4,��,5,6
2013/9/1,21:00:00,3,���k��,2.1,14.5,98.7,0,0,4,��,4.6,1
2013/9/1,22:00:00,3,���k��,2.3,14.3,98.3,0,0,3,���k��,4.5,35
2013/9/1,23:00:00,2,�k��,1.7,14.4,98.5,0,0,2,�k��,4,16
2013/9/1,0:00:00,2,�k��,1.7,14.2,99.2,0,0,3,���k��,4,39
2013/9/2,1:00:00,1,�k�k��,1.3,14.2,99.4,0,0,3,���k��,3,7
2013/9/2,2:00:00,2,�k��,1.1,14.2,99.3,0,0,1,�k�k��,2.3,3
2013/9/2,3:00:00,12,�É�,0.1,14.3,99.1,0,0,2,�k��,1.8,0
2013/9/2,4:00:00,16,�k,0.8,14.2,99.1,0,0,16,�k,1.4,57
2013/9/2,5:00:00,16,�k,0.9,14.2,99.5,0,0,1,�k�k��,1.9,31
2013/9/2,6:00:00,1,�k�k��,1.1,14.4,99.8,0,0.01,1,�k�k��,2.2,59
2013/9/2,7:00:00,1,�k�k��,1.6,14.7,99.6,0,0.04,1,�k�k��,3,58
2013/9/2,8:00:00,2,�k��,1.5,15.3,98.8,0,0.08,2,�k��,2.7,0
2013/9/2,9:00:00,2,�k��,2.4,15.3,98.9,0,0.11,2,�k��,3.7,54
2013/9/2,10:00:00,2,�k��,2.2,15.7,97.9,0,0.16,1,�k�k��,4.1,33
2013/9/2,11:00:00,2,�k��,2.5,16.2,94.1,0,0.18,2,�k��,4.3,35
2013/9/2,12:00:00,3,���k��,2.9,15.4,98,0,0.12,2,�k��,4.8,11
2013/9/2,13:00:00,1,�k�k��,2.2,15.3,98,0,0.09,3,���k��,5.7,34
2013/9/2,14:00:00,2,�k��,2,15.5,98.5,0,0.07,4,��,6.4,7
2013/9/2,15:00:00,2,�k��,2.2,15.4,99,0,0.04,1,�k�k��,3.3,28
2013/9/2,16:00:00,3,���k��,3.1,15.3,99.2,0.5,0.04,3,���k��,5.2,47
2013/9/2,17:00:00,2,�k��,2.5,15.3,99,0,0.02,3,���k��,5.3,6
2013/9/2,18:00:00,1,�k�k��,1.7,15.2,99.2,0,0,1,�k�k��,3.7,2
2013/9/2,19:00:00,15,�k�k��,1.1,15.3,99.3,0,0,15,�k�k��,2.3,59
2013/9/2,20:00:00,15,�k�k��,1,15.3,99.4,0.5,0,16,�k,2.5,7
2013/9/2,21:00:00,15,�k�k��,0.8,15.4,99.6,0.5,0,14,�k��,2.5,30
2013/9/2,22:00:00,15,�k�k��,0.9,15.4,99.7,0.5,0,14,�k��,2.3,54
2013/9/2,23:00:00,14,�k��,1.1,15.4,99.7,0.5,0,14,�k��,3,20
2013/9/2,0:00:00,14,�k��,1.7,15.4,99.8,0.5,0,13,���k��,2.8,54
2013/9/3,1:00:00,14,�k��,0.9,15.4,99.8,0,0,13,���k��,3.1,4
2013/9/3,2:00:00,15,�k�k��,0.9,15.4,99.8,0,0,13,���k��,3.2,37
2013/9/3,3:00:00,15,�k�k��,0.5,15.4,99.7,0,0,13,���k��,3,27
2013/9/3,4:00:00,13,���k��,0.6,15.5,99.6,0,0,16,�k,1.3,2
2013/9/3,5:00:00,13,���k��,0.8,15.5,99.8,0,0,13,���k��,1.8,5
2013/9/3,6:00:00,15,�k�k��,0.5,15.6,99.9,0,0.02,14,�k��,2.2,20
2013/9/3,7:00:00,14,�k��,1,16.1,99.9,0.5,0.06,15,�k�k��,1.9,57
2013/9/3,8:00:00,16,�k,1.1,16.4,99.4,0,0.08,16,�k,2.5,46
2013/9/3,9:00:00,16,�k,1.1,17,98.7,0,0.12,1,�k�k��,2.3,17
2013/9/3,10:00:00,1,�k�k��,1.4,17.6,97.6,0,0.17,4,��,2.6,50
2013/9/3,11:00:00,5,���쓌,2.4,17.5,97.1,0,0.19,4,��,3.2,51
2013/9/3,12:00:00,3,���k��,2.4,18.2,97.1,0,0.25,4,��,3.8,43
2013/9/3,13:00:00,3,���k��,3.2,18.7,94.9,0,0.27,3,���k��,4.5,49
2013/9/3,14:00:00,3,���k��,2.5,18.5,94.7,0,0.25,4,��,4.6,3
2013/9/3,15:00:00,3,���k��,2.3,17.3,98.1,1,0.1,3,���k��,3.6,51
2013/9/3,16:00:00,4,��,2,17,98.7,0,0.07,3,���k��,3.2,30
2013/9/3,17:00:00,1,�k�k��,1.5,16.9,98.9,0,0.04,2,�k��,2.9,36
2013/9/3,18:00:00,7,�É�,0.2,16.8,98.9,3,0.01,1,�k�k��,1.9,6
2013/9/3,19:00:00,10,�쐼,0.6,16.7,99.4,1,0,4,��,1.8,6
2013/9/3,20:00:00,10,�쐼,0.5,16.7,99.6,0,0,12,��,2,13
2013/9/3,21:00:00,15,�k�k��,0.7,16.9,99.7,0,0,13,���k��,1.4,20
2013/9/3,22:00:00,13,���k��,0.8,17,99.7,0,0,14,�k��,1.7,34
2013/9/3,23:00:00,14,�k��,1.1,17,99.7,0,0,15,�k�k��,2,58
2013/9/3,0:00:00,14,�k��,1.4,17.2,99.6,0,0,15,�k�k��,2.8,36
2013/9/4,1:00:00,16,�k,0.6,17.3,99.6,0.5,0,14,�k��,1.7,0
2013/9/4,2:00:00,12,��,0.9,17.3,99.7,0,0,9,��쐼,1.7,38
2013/9/4,3:00:00,14,�k��,0.7,17.4,99.8,0,0,12,��,2.2,30
2013/9/4,4:00:00,14,�k��,0.5,17.4,99.8,0,0,13,���k��,2.3,31
2013/9/4,5:00:00,13,���k��,0.7,17.5,99.7,0,0,14,�k��,2.3,27
2013/9/4,6:00:00,13,�É�,0.1,17.7,99.7,0,0.02,13,���k��,1.5,27
2013/9/4,7:00:00,14,�k��,1.2,18.3,99.7,0.5,0.07,15,�k�k��,2.3,53
2013/9/4,8:00:00,3,���k��,1.9,18.4,98.9,0,0.12,4,��,2.8,55
2013/9/4,9:00:00,3,���k��,2.7,18.6,98.8,1,0.18,4,��,4.2,41
2013/9/4,10:00:00,4,��,3.4,18.7,98.6,0,0.24,4,��,4.5,56
2013/9/4,11:00:00,3,���k��,2.9,20.2,95.3,0,0.39,3,���k��,4.3,3
2013/9/4,12:00:00,3,���k��,2.8,21,92.2,0.5,0.6,4,��,4.7,32
2013/9/4,13:00:00,3,���k��,2.7,20.7,92.3,0,0.43,4,��,4.6,35
2013/9/4,14:00:00,3,���k��,2.9,20.7,94.1,0,0.28,3,���k��,4.5,51
2013/9/4,15:00:00,3,���k��,2.8,19.3,98.6,0,0.13,3,���k��,4.9,6
2013/9/4,16:00:00,2,�k��,1.7,19.7,99.4,0,0.05,3,���k��,3.9,2
2013/9/4,17:00:00,2,�k��,1.2,19.8,99.5,0,0.03,2,�k��,3.3,31
2013/9/4,18:00:00,4,��,1.1,19.9,99.6,0,0.01,3,���k��,2.7,19
2013/9/4,19:00:00,16,�É�,0.2,20,99.7,0.5,0,4,��,1.1,0
2013/9/4,20:00:00,8,��,3.2,21.2,99.7,0.5,0,9,��쐼,8.4,47
2013/9/4,21:00:00,7,��쓌,4.1,21.3,99.6,0,0,8,��,8.3,54
2013/9/4,22:00:00,8,��,5.3,21.4,99.6,0,0,7,��쓌,12.6,34
2013/9/4,23:00:00,7,��쓌,5.9,21.1,99.6,0,0,7,��쓌,11.8,25
2013/9/4,0:00:00,7,��쓌,6.8,20.9,99.6,0,0,7,��쓌,12.4,15
2013/9/5,1:00:00,8,��,5.5,20.3,99.7,0,0,8,��,13.4,8
2013/9/5,2:00:00,8,��,6.1,21.1,99.7,0,0,8,��,12.6,51
2013/9/5,3:00:00,8,��,6.5,21.6,99.6,0,0,8,��,12.8,52
2013/9/5,4:00:00,9,��쐼,3.1,21.4,99.5,0,0,8,��,11.1,3
2013/9/5,5:00:00,9,��쐼,4.1,22.4,93.2,0,0,10,�쐼,7.4,16
2013/9/5,6:00:00,10,�쐼,4.7,22.4,88.4,0,0.07,9,��쐼,8.2,21
2013/9/5,7:00:00,10,�쐼,6.2,24.6,76.1,0,0.21,11,���쐼,10.9,41
2013/9/5,8:00:00,10,�쐼,4.8,24.2,76.1,0,0.35,10,�쐼,8.9,35
2013/9/5,9:00:00,11,���쐼,3.7,25.6,63.8,0,0.39,10,�쐼,8.3,2
2013/9/5,10:00:00,10,�쐼,3.8,25,62.4,0,0.58,11,���쐼,8.9,18
2013/9/5,11:00:00,6,�쓌,2.7,24.1,65.6,0,0.45,10,�쐼,4.7,21
2013/9/5,12:00:00,7,��쓌,0.9,24.3,70.6,0,0.3,6,�쓌,3.9,17
2013/9/5,13:00:00,12,��,2.1,25.7,63.2,0,0.38,15,�k�k��,4.9,40
2013/9/5,14:00:00,9,��쐼,2.5,24.3,64,0,0.37,9,��쐼,3.6,54
2013/9/5,15:00:00,10,�쐼,2.4,23.4,66.7,0,0.3,9,��쐼,3.8,51
2013/9/5,16:00:00,12,��,1,22.5,72.5,0,0.18,9,��쐼,5.9,33
2013/9/5,17:00:00,11,���쐼,3.2,23.6,56.2,0,0.33,11,���쐼,7,46
2013/9/5,18:00:00,14,�k��,0.7,18.4,83.9,0,0.07,13,���k��,4.5,8
2013/9/5,19:00:00,12,��,2.8,17.2,83.7,0,0,12,��,4.7,45
2013/9/5,20:00:00,14,�k��,1.2,14.6,96.5,0,0,12,��,3.5,18
2013/9/5,21:00:00,11,���쐼,1.2,13.6,97.9,0,0,12,��,2.6,7
2013/9/5,22:00:00,9,��쐼,1,12.3,98.6,0,0,12,��,2.2,37
2013/9/5,23:00:00,11,���쐼,1.4,12.7,99,0,0,14,�k��,3.4,20
2013/9/5,0:00:00,13,���k��,1.8,13.1,98.1,0,0,14,�k��,3.4,50
2013/9/6,1:00:00,13,���k��,2.5,13.4,99.1,0,0,13,���k��,3.8,55
2013/9/6,2:00:00,13,���k��,1.9,14,94.4,0,0,13,���k��,4.6,26
2013/9/6,3:00:00,12,��,3.2,14.2,95.2,0,0,13,���k��,4.3,49
2013/9/6,4:00:00,13,���k��,2.8,15.1,90.4,0,0,13,���k��,5.3,16
2013/9/6,5:00:00,13,���k��,2.5,14.7,89.2,0,0,13,���k��,4.1,36
2013/9/6,6:00:00,13,���k��,3.3,16.2,81.9,0,0.06,13,���k��,6,57
2013/9/6,7:00:00,15,�k�k��,1.8,17.8,76.3,0,0.26,14,�k��,4.8,3
2013/9/6,8:00:00,14,�k��,1.6,20.3,63.4,0,0.46,16,�k,3.9,16
2013/9/6,9:00:00,15,�k�k��,2.4,21.9,58,0,0.63,1,�k�k��,6.1,27
2013/9/6,10:00:00,16,�k,2.4,22.4,50.3,0,0.76,16,�k,7.6,13
2013/9/6,11:00:00,7,��쓌,2.5,22.1,61.8,0,0.85,6,�쓌,4.9,52
2013/9/6,12:00:00,8,��,3.4,21.4,67.3,0,0.86,7,��쓌,7.6,4
2013/9/6,13:00:00,7,��쓌,3.3,20.2,61.7,0,0.68,8,��,5.8,6
2013/9/6,14:00:00,7,��쓌,2.2,19.3,71.9,0,0.39,7,��쓌,5.1,21
2013/9/6,15:00:00,8,��,2,19.2,76.4,0,0.29,7,��쓌,4.6,18
2013/9/6,16:00:00,6,�쓌,1.4,18.8,70.3,0,0.21,8,��,3.9,3
2013/9/6,17:00:00,2,�k��,1.4,17.6,88.1,0,0.08,4,��,2.7,6
2013/9/6,18:00:00,3,���k��,2.3,16.6,94.1,0,0.02,4,��,3.5,48
2013/9/6,19:00:00,4,��,0.9,16.6,96.2,0,0,3,���k��,2.8,10
2013/9/6,20:00:00,4,��,3.2,16.3,85.6,0,0,4,��,5.1,30
2013/9/6,21:00:00,3,���k��,2,16.1,89.6,0,0,4,��,4.3,13
2013/9/6,22:00:00,15,�k�k��,0.5,15.7,94.3,0,0,4,��,2.9,14
2013/9/6,23:00:00,14,�k��,1.1,15.4,95.6,0,0,13,���k��,1.8,44
2013/9/6,0:00:00,12,��,0.7,15.2,97.6,0,0,13,���k��,1.2,57
2013/9/7,1:00:00,12,��,1,15,97.7,0,0,13,���k��,2,0
2013/9/7,2:00:00,15,�É�,0.2,15.1,98,0,0,13,���k��,2.3,0
2013/9/7,3:00:00,13,���k��,0.4,15,98.2,0,0,1,�k�k��,2.3,19
2013/9/7,4:00:00,5,���쓌,0.5,14.8,96.5,0,0,2,�k��,2.5,35
2013/9/7,5:00:00,7,��쓌,0.4,14.4,97.9,0,0,3,���k��,2.8,11
2013/9/7,6:00:00,2,�k��,1.5,14.9,97.1,0,0.03,2,�k��,2.2,57
2013/9/7,7:00:00,1,�k�k��,1.6,15.9,93.7,0,0.1,3,���k��,2.8,5
2013/9/7,8:00:00,2,�k��,1.6,16.7,89,0,0.18,1,�k�k��,2.5,42
2013/9/7,9:00:00,4,��,2.1,17.4,83.6,0,0.25,4,��,3.4,39
2013/9/7,10:00:00,3,���k��,2.6,17.5,84.6,0,0.28,3,���k��,4.4,52
2013/9/7,11:00:00,4,��,2.5,17.2,86.2,0,0.4,3,���k��,4.4,32
2013/9/7,12:00:00,3,���k��,3.2,16.8,86.3,0,0.21,2,�k��,4.6,51
2013/9/7,13:00:00,2,�k��,1.1,16.8,92.1,0,0.11,3,���k��,4.3,5
2013/9/7,14:00:00,6,�쓌,0.5,17.5,91.1,0,0.11,2,�k��,2.2,13
2013/9/7,15:00:00,6,�쓌,1.1,17.7,91.9,0,0.14,7,��쓌,3.2,9
2013/9/7,16:00:00,7,��쓌,1.4,18.2,90,0,0.14,7,��쓌,2.7,59
2013/9/7,17:00:00,7,��쓌,1.8,17.9,91.9,0,0.11,7,��쓌,3.3,53
2013/9/7,18:00:00,2,�k��,0.7,17.3,96,0,0.02,8,��,3,3
2013/9/7,19:00:00,12,�É�,0.1,17.5,96.2,0,0,10,�쐼,1.8,43
2013/9/7,20:00:00,13,���k��,0.4,17.5,97.4,0,0,9,��쐼,1.8,29
2013/9/7,21:00:00,10,�쐼,0.5,17.5,97.8,0,0,9,��쐼,2,20
2013/9/7,22:00:00,14,�k��,1.3,17.1,98.3,0,0,14,�k��,2.7,51
2013/9/7,23:00:00,14,�k��,2,16.6,97.1,0,0,14,�k��,4.1,41
2013/9/7,0:00:00,14,�k��,2,16.4,96.9,0,0,14,�k��,4.2,44
2013/9/8,1:00:00,14,�k��,1.5,16.2,97.5,0,0,14,�k��,4.2,2
2013/9/8,2:00:00,14,�k��,1.7,16.1,98,0,0,14,�k��,4,13
2013/9/8,3:00:00,14,�k��,1.2,16.1,98.2,0.5,0,12,��,3.5,22
2013/9/8,4:00:00,15,�k�k��,0.3,16.1,98.2,0,0,14,�k��,2.5,7
2013/9/8,5:00:00,14,�k��,1.2,16.1,97.8,0,0,14,�k��,2.6,53
2013/9/8,6:00:00,12,��,0.4,16.3,98.3,0,0.01,12,��,1.6,47
2013/9/8,7:00:00,14,�k��,1,16.6,97.6,0,0.04,14,�k��,1.7,55
2013/9/8,8:00:00,15,�k�k��,0.4,17,97.5,0,0.06,14,�k��,2.5,10
2013/9/8,9:00:00,3,���k��,1.6,17.4,97.6,0,0.08,5,���쓌,2.9,52
2013/9/8,10:00:00,3,���k��,2,17.6,98.6,0,0.13,2,�k��,2.8,53
2013/9/8,11:00:00,1,�k�k��,1.5,17.8,98.7,0.5,0.14,2,�k��,2.8,1
2013/9/8,12:00:00,4,��,3.5,17.3,98.7,2.5,0.15,5,���쓌,5.2,42
2013/9/8,13:00:00,2,�k��,2.6,17.6,99.3,0,0.11,3,���k��,5.7,19
2013/9/8,14:00:00,4,��,2.3,17.6,99,0,0.13,4,��,4.9,17
2013/9/8,15:00:00,4,��,2.1,17.7,98.4,0,0.13,4,��,4.8,40
2013/9/8,16:00:00,4,��,2.8,17.5,98.1,0,0.13,4,��,3.7,58
2013/9/8,17:00:00,1,�k�k��,1.8,17.1,99.2,0,0.04,4,��,3.7,8
2013/9/8,18:00:00,4,��,0.4,17.3,99.5,0,0.01,1,�k�k��,2.5,21
2013/9/8,19:00:00,5,���쓌,1.7,17.2,99.7,0,0,5,���쓌,2.6,46
2013/9/8,20:00:00,5,���쓌,0.7,17.2,99.6,0,0,4,��,2.5,36
2013/9/8,21:00:00,4,��,0.8,17.2,99.6,0,0,4,��,1.7,59
2013/9/8,22:00:00,5,�É�,0,17.2,99.6,0,0,4,��,1.5,0
2013/9/8,23:00:00,2,�k��,1.1,16.8,99.7,0,0,2,�k��,2.2,48
2013/9/8,0:00:00,5,���쓌,0.3,17,99.8,0,0,5,���쓌,1.9,36
2013/9/9,1:00:00,16,�k,0.9,16.7,99.9,0,0,15,�k�k��,2.5,37
2013/9/9,2:00:00,16,�k,1,16.6,99.9,0,0,1,�k�k��,2.3,57
2013/9/9,3:00:00,16,�k,0.5,16.5,100,0,0,1,�k�k��,1.7,4
2013/9/9,4:00:00,14,�k��,0.3,16.3,100,0,0,4,��,1.3,19
2013/9/9,5:00:00,14,�É�,0.1,15.9,100,0,0,3,���k��,1.1,27
2013/9/9,6:00:00,14,�k��,0.8,15.8,100,0,0.04,14,�k��,1.4,58
2013/9/9,7:00:00,15,�É�,0.1,16.2,100,0,0.12,13,���k��,1.1,3
2013/9/9,8:00:00,14,�k��,1.6,17.3,90.7,0,0.4,13,���k��,3.6,58
2013/9/9,9:00:00,14,�k��,2.2,20.9,75.4,0,0.62,13,���k��,5.7,47
2013/9/9,10:00:00,2,�k��,1.4,22.2,75.5,0,0.69,16,�k,4.3,5
2013/9/9,11:00:00,6,�쓌,2.9,21.2,74.9,0,0.87,6,�쓌,5,57
2013/9/9,12:00:00,6,�쓌,0.8,21.4,77.4,0,0.86,5,���쓌,4.6,33
2013/9/9,13:00:00,7,��쓌,0.5,21.1,71.3,0,0.83,8,��,4.1,49
2013/9/9,14:00:00,7,��쓌,1.8,21.2,79.1,0,0.71,7,��쓌,5,49
2013/9/9,15:00:00,8,��,3.4,20.6,71.7,0,0.57,9,��쐼,5.4,52
2013/9/9,16:00:00,8,��,1.9,20.3,75,0,0.36,9,��쐼,5.9,3
2013/9/9,17:00:00,6,�쓌,1.4,18.9,87.2,0,0.2,9,��쐼,3.8,4
2013/9/9,18:00:00,8,��,0.7,16.5,96.5,0,0.03,8,��,3,6
2013/9/9,19:00:00,14,�k��,0.3,14.1,98.3,0,0,7,��쓌,1.3,5
2013/9/9,20:00:00,12,��,1.7,13.8,99.6,0,0,12,��,2.3,58
2013/9/9,21:00:00,13,���k��,1.4,14.3,99.7,0,0,14,�k��,3.1,43
2013/9/9,22:00:00,16,�k,0.4,12.7,99.6,0,0,14,�k��,2.5,15
2013/9/9,23:00:00,14,�k��,0.6,12.3,100,0,0,12,��,1.9,24
2013/9/9,0:00:00,14,�k��,1.8,11.8,100,0,0,14,�k��,2.3,54
2013/9/10,1:00:00,12,��,1.9,11.9,100,0,0,12,��,2.4,57
2013/9/10,2:00:00,13,���k��,1.5,11.9,100,0,0,13,���k��,3.3,49
2013/9/10,3:00:00,13,���k��,1.7,12.3,100,0,0,13,���k��,3.2,44
2013/9/10,4:00:00,12,��,1.3,12.4,99.6,0,0,14,�k��,3.6,31
2013/9/10,5:00:00,13,���k��,1.5,11.6,99.8,0,0,12,��,2.4,44
2013/9/10,6:00:00,13,���k��,1.1,13.1,100,0,0.03,12,��,2.8,35
2013/9/10,7:00:00,14,�k��,1.1,15.3,99.3,0,0.12,13,���k��,2,21
2013/9/10,8:00:00,2,�k��,0.8,19.2,92.1,0,0.38,16,�k,2.1,14
2013/9/10,9:00:00,5,���쓌,2.2,19.5,85.7,0,0.6,6,�쓌,3.2,43
2013/9/10,10:00:00,6,�쓌,2,20,79.2,0,0.65,6,�쓌,3.2,24
2013/9/10,11:00:00,5,���쓌,2.3,21.9,77.7,0,0.73,4,��,3.6,45
2013/9/10,12:00:00,6,�쓌,2.5,20.7,79.1,0,0.79,6,�쓌,4.2,57
2013/9/10,13:00:00,6,�쓌,1.8,19.9,82.7,0,0.72,6,�쓌,4.6,11
2013/9/10,14:00:00,6,�쓌,2.4,19.9,89.6,0,0.64,5,���쓌,4.6,59
2013/9/10,15:00:00,6,�쓌,1.7,19.8,91.2,0,0.33,6,�쓌,4.9,12
2013/9/10,16:00:00,5,���쓌,1.7,19.6,92.4,0,0.16,6,�쓌,3.9,32
2013/9/10,17:00:00,6,�쓌,1.8,19.6,93.9,0,0.07,5,���쓌,3.9,34
2013/9/10,18:00:00,9,��쐼,1,18.5,96.6,0,0.01,6,�쓌,2.5,2
2013/9/10,19:00:00,4,�É�,0,18,97.1,0,0,8,��,2.7,3
2013/9/10,20:00:00,12,��,0.5,17.2,97.7,0,0,14,�k��,1.4,42
2013/9/10,21:00:00,14,�k��,1.1,15.4,99.2,0,0,12,��,2.4,29
2013/9/10,22:00:00,11,���쐼,0.7,13.3,99.3,0,0,12,��,2.4,7
2013/9/10,23:00:00,13,���k��,1.9,14.1,100,0,0,13,���k��,2.4,46
2013/9/10,0:00:00,13,���k��,1.8,14.3,100,0,0,13,���k��,2.5,45
2013/9/11,1:00:00,13,���k��,2.3,13.7,100,0,0,13,���k��,2.9,59
2013/9/11,2:00:00,13,���k��,1.8,13.8,100,0,0,13,���k��,3.2,9
2013/9/11,3:00:00,13,���k��,2.6,13.9,100,0,0,13,���k��,3.4,51
2013/9/11,4:00:00,12,��,1.3,13.1,99.8,0,0,14,�k��,3.4,24
2013/9/11,5:00:00,13,���k��,2.2,12.5,99.7,0,0,14,�k��,3.1,29
2013/9/11,6:00:00,13,���k��,1.7,13.9,99.6,0,0.05,13,���k��,3.8,3
2013/9/11,7:00:00,13,���k��,1.2,16.7,90.7,0,0.23,14,�k��,2.2,1
2013/9/11,8:00:00,5,���쓌,1.2,19.7,92.8,0,0.36,15,�k�k��,2.4,11
2013/9/11,9:00:00,4,��,2.4,20.8,88.3,0,0.6,4,��,3.6,42
2013/9/11,10:00:00,5,���쓌,2.1,20.3,89,0,0.57,5,���쓌,3.9,13
2013/9/11,11:00:00,5,���쓌,3,20.9,84.9,0,0.64,5,���쓌,5.2,59
2013/9/11,12:00:00,6,�쓌,2.8,21.1,89.6,0,0.59,5,���쓌,4.7,17
2013/9/11,13:00:00,6,�쓌,2.7,21.4,85.3,0,0.68,6,�쓌,6.3,34
2013/9/11,14:00:00,7,��쓌,3.2,20.8,86.5,0,0.56,8,��,6.5,40
2013/9/11,15:00:00,7,��쓌,4.4,21.1,85.6,0,0.46,7,��쓌,8.2,31
2013/9/11,16:00:00,7,��쓌,3.7,20.5,90.1,0,0.28,7,��쓌,8.4,10
2013/9/11,17:00:00,8,��,2.7,19.6,93.8,0,0.1,8,��,6.6,18
2013/9/11,18:00:00,7,��쓌,1.6,18.6,96.6,0,0.02,7,��쓌,5,34
2013/9/11,19:00:00,8,��,2.6,19,96.2,0,0,8,��,5.3,50
2013/9/11,20:00:00,8,��,2.2,19.3,95.9,0,0,9,��쐼,4.7,21
2013/9/11,21:00:00,8,��,2,19.4,96.8,0,0,8,��,5.5,30
2013/9/11,22:00:00,8,��,2,19.4,97.5,0.5,0,8,��,4.6,34
2013/9/11,23:00:00,8,��,2.4,19.2,97.6,0,0,7,��쓌,6.1,29
2013/9/11,0:00:00,7,��쓌,1.6,19,98,0,0,7,��쓌,4.2,35
2013/9/12,1:00:00,10,�쐼,1.6,18.9,98.2,0,0,7,��쓌,3.6,2
2013/9/12,2:00:00,11,���쐼,0.5,18.9,98.2,0,0,9,��쐼,3.3,10
2013/9/12,3:00:00,12,��,1.2,17.8,98.5,0.5,0,12,��,4.3,44
2013/9/12,4:00:00,14,�k��,1.8,17.9,98.9,0.5,0,13,���k��,3.8,19
2013/9/12,5:00:00,12,��,2.6,17.5,99,0.5,0,13,���k��,4,50
2013/9/12,6:00:00,14,�k��,2.2,17.8,98.7,0,0,14,�k��,3.6,55
2013/9/12,7:00:00,12,��,0.7,17.8,98.5,1,0.02,14,�k��,4.2,9
2013/9/12,8:00:00,7,��쓌,0.4,18.2,99,0.5,0.05,12,��,3.1,1
2013/9/12,9:00:00,2,�k��,1.3,21.2,93.8,0,0.33,14,�k��,5.1,30
2013/9/12,10:00:00,4,��,0.8,22.4,89.8,0,0.57,1,�k�k��,3.5,37
2013/9/12,11:00:00,3,���k��,1.6,23.3,84.5,0,0.62,5,���쓌,4,49
2013/9/12,12:00:00,5,���쓌,2.7,22.7,83.3,0,0.82,5,���쓌,4.6,45
2013/9/12,13:00:00,5,�É�,0.1,23,82.8,0,0.7,6,�쓌,4,2
2013/9/12,14:00:00,7,�É�,0,23.1,79.1,0,0.7,9,��쐼,0.8,57
2013/9/12,15:00:00,8,��,0.9,22.1,86.5,0,0.5,8,��,3,56
2013/9/12,16:00:00,9,��쐼,1.6,21.2,88.5,0,0.25,7,��쓌,3.5,13
2013/9/12,17:00:00,9,��쐼,0.9,20,91.7,0,0.11,8,��,2.6,16
2013/9/12,18:00:00,12,��,0.9,18.1,97.8,0,0.02,12,��,1.3,56
2013/9/12,19:00:00,13,���k��,1,17.9,98.9,0,0,13,���k��,2.2,45
2013/9/12,20:00:00,13,���k��,1.2,18,99.2,0,0,13,���k��,2.8,30
2013/9/12,21:00:00,14,�k��,0.6,17.9,99,0,0,14,�k��,2.8,19
2013/9/12,22:00:00,15,�k�k��,1,17.2,96.8,0,0,14,�k��,3.6,25
2013/9/12,23:00:00,15,�k�k��,1.4,15.6,99.2,0,0,15,�k�k��,2.1,57
2013/9/12,0:00:00,10,�쐼,0.3,15.6,99.2,0,0,11,���쐼,2.4,42
2013/9/13,1:00:00,14,�É�,0.2,13,99.1,0,0,12,��,2,15
2013/9/13,2:00:00,13,���k��,1.4,12.1,99.8,0,0,12,��,2.4,34
2013/9/13,3:00:00,13,���k��,1.7,12.2,100,0,0,13,���k��,2.5,59
2013/9/13,4:00:00,12,��,1.1,11.6,98.2,0,0,13,���k��,2.7,11
2013/9/13,5:00:00,14,�k��,1.5,12.6,93.8,0,0,14,�k��,3.4,58
2013/9/13,6:00:00,14,�k��,2.8,12.9,94.1,0,0.07,14,�k��,4.3,5
2013/9/13,7:00:00,13,���k��,1.3,15.4,89.9,0,0.25,14,�k��,3.5,0
2013/9/13,8:00:00,14,�k��,1,19.7,80.3,0,0.45,13,���k��,3.6,7
2013/9/13,9:00:00,6,�쓌,1.9,20.8,81.1,0,0.62,5,���쓌,3,57
2013/9/13,10:00:00,5,���쓌,2,22.6,76.5,0,0.74,4,��,3.1,47
2013/9/13,11:00:00,5,���쓌,0.4,23.3,72.4,0,0.83,4,��,3.5,19
2013/9/13,12:00:00,6,�É�,0,21.1,78,0,0.81,5,���쓌,1.5,20
2013/9/13,13:00:00,6,�É�,0,18.9,87.5,0,0.72,8,��,1,53
2013/9/13,14:00:00,7,��쓌,2.2,18.9,87.9,0,0.45,7,��쓌,4.9,46
2013/9/13,15:00:00,6,�쓌,2.1,18.8,91.5,0,0.32,5,���쓌,4.2,26
2013/9/13,16:00:00,7,��쓌,1.3,18.6,93.1,0,0.15,6,�쓌,3.5,16
2013/9/13,17:00:00,6,�쓌,1.2,18.3,94.3,0,0.06,5,���쓌,2.4,9
2013/9/13,18:00:00,8,��,0.8,17.9,95.4,0,0.01,7,��쓌,1.8,10
2013/9/13,19:00:00,3,���k��,1,18.1,96.4,0,0,8,��,1.4,9
2013/9/13,20:00:00,2,�É�,0.2,18,97.2,0,0,3,���k��,1,0
2013/9/13,21:00:00,4,��,0.3,17.7,97.9,0,0,4,��,0.9,59
2013/9/13,22:00:00,2,�k��,0.5,17.9,98,0,0,4,��,1.3,5
2013/9/13,23:00:00,1,�k�k��,1.1,17.8,98.3,0,0,1,�k�k��,1.7,59
2013/9/13,0:00:00,5,���쓌,1.1,18.1,98.9,0,0,1,�k�k��,1.9,2
2013/9/14,1:00:00,5,���쓌,0.4,18.5,98.8,0,0,6,�쓌,1.7,10
2013/9/14,2:00:00,6,�쓌,1.1,18.9,98.9,0,0,6,�쓌,2.2,31
2013/9/14,3:00:00,5,���쓌,1.5,19.2,99,0,0,5,���쓌,3.2,50
2013/9/14,4:00:00,8,��,1.2,19.2,98.7,0,0,7,��쓌,4.5,32
2013/9/14,5:00:00,8,��,2.7,19.7,98.8,0,0,8,��,6.3,52
2013/9/14,6:00:00,7,��쓌,3.2,20.1,97.9,0,0.01,7,��쓌,7.5,29
2013/9/14,7:00:00,9,��쐼,5.9,21,96.1,0,0.08,8,��,13.9,22
2013/9/14,8:00:00,9,��쐼,5.5,21.7,92.6,0,0.19,9,��쐼,10.8,7
2013/9/14,9:00:00,10,�쐼,5.2,23.8,81.7,0,0.52,9,��쐼,11.7,30
2013/9/14,10:00:00,9,��쐼,5.6,24.8,76.5,0,0.65,10,�쐼,9.8,1
2013/9/14,11:00:00,9,��쐼,4.7,23.2,85.7,0,0.39,9,��쐼,10.9,10
2013/9/14,12:00:00,8,��,3.2,22.2,87.7,0,0.22,8,��,7.9,5
2013/9/14,13:00:00,8,��,4.6,23.1,81.9,0,0.45,7,��쓌,8.4,51
2013/9/14,14:00:00,6,�쓌,5.1,22.7,84.8,0,0.35,6,�쓌,7.7,55
2013/9/14,15:00:00,7,��쓌,4.6,23.8,85.4,0,0.43,7,��쓌,8.7,43
2013/9/14,16:00:00,7,��쓌,4.6,24.3,79.3,0,0.41,8,��,8.3,58
2013/9/14,17:00:00,8,��,4,23.6,82.2,0,0.22,7,��쓌,8.9,21
2013/9/14,18:00:00,10,�쐼,3.4,23,85.9,0,0.02,9,��쐼,7.4,16
2013/9/14,19:00:00,8,��,1.5,22.2,89.1,0,0,10,�쐼,5,0
2013/9/14,20:00:00,8,��,2.2,21.3,88,0,0,8,��,5.2,20
2013/9/14,21:00:00,14,�k��,1.1,21.1,91.7,0,0,5,���쓌,3.8,0
2013/9/14,22:00:00,10,�쐼,1.7,20.2,96.4,0,0,10,�쐼,2.5,58
2013/9/14,23:00:00,11,�É�,0.1,19.3,98.1,0,0,10,�쐼,2.7,3
2013/9/14,0:00:00,12,��,1.1,19.4,97,0,0,9,��쐼,2.4,30
2013/9/15,1:00:00,12,��,2.2,19.4,98.4,0,0,13,���k��,3.4,57
2013/9/15,2:00:00,15,�k�k��,0.6,18.6,98.3,0,0,10,�쐼,2.5,5
2013/9/15,3:00:00,12,��,1.3,18.5,98.8,0,0,13,���k��,2.9,8
2013/9/15,4:00:00,2,�k��,0.6,18.3,98.6,0,0,12,��,2.4,2
2013/9/15,5:00:00,4,��,0.5,17.8,99,0,0,16,�k,1.7,3
2013/9/15,6:00:00,1,�k�k��,2.4,19.4,98.9,0,0.01,1,�k�k��,3.6,53
2013/9/15,7:00:00,2,�k��,1.2,20.1,98,0,0.08,2,�k��,2.8,31
2013/9/15,8:00:00,2,�k��,1.7,20.9,97.6,0,0.16,2,�k��,3.6,30
2013/9/15,9:00:00,4,��,2.6,20.5,98.3,0,0.14,3,���k��,3.5,56
2013/9/15,10:00:00,5,���쓌,1.9,20.1,98.8,0,0.15,6,�쓌,4.7,43
2013/9/15,11:00:00,6,�쓌,1,21.2,98.8,0,0.19,6,�쓌,3.4,13
2013/9/15,12:00:00,14,�k��,1.9,22.7,93,0,0.33,12,��,3.4,54
2013/9/15,13:00:00,15,�k�k��,3,22,92.7,0,0.16,14,�k��,7.4,59
2013/9/15,14:00:00,16,�k,2.5,21.3,96.3,8,0.1,15,�k�k��,7.3,0
2013/9/15,15:00:00,14,�k��,0.7,21,95.6,0,0.09,1,�k�k��,3.5,25
2013/9/15,16:00:00,8,��,1.4,20.6,97,0,0.05,9,��쐼,2.5,55
2013/9/15,17:00:00,7,��쓌,3.1,18.9,98.5,1,0.02,7,��쓌,6.3,53
2013/9/15,18:00:00,9,��쐼,0.6,18.8,99,0,0.01,8,��,4,1
2013/9/15,19:00:00,9,��쐼,1.1,18.6,99.1,0,0,8,��,2.8,20
2013/9/15,20:00:00,10,�쐼,0.4,18.6,99.2,0,0,9,��쐼,2.5,3
2013/9/15,21:00:00,7,��쓌,1.3,18.6,99.3,0,0,8,��,3.7,40
2013/9/15,22:00:00,14,�k��,1.8,18.5,99.6,0,0,7,��쓌,4.6,11
2013/9/15,23:00:00,4,��,1,18.3,99.7,0.5,0,14,�k��,3,0
2013/9/15,0:00:00,6,�쓌,0.8,18.2,99.6,0,0,14,�k��,2.3,8
2013/9/16,1:00:00,14,�k��,1.9,18.1,99.8,0,0,4,��,3.4,22
2013/9/16,2:00:00,15,�É�,0.1,18,99.8,0,0,14,�k��,2,0
2013/9/16,3:00:00,10,�쐼,0.5,16.8,99.9,0,0,1,�k�k��,1.2,18
2013/9/16,4:00:00,16,�É�,0,17.1,100,0,0,11,���쐼,1.4,3
2013/9/16,5:00:00,11,���쐼,0.7,16.8,100,0,0,10,�쐼,1.7,59
2013/9/16,6:00:00,12,�É�,0,17.4,100,0,0.02,10,�쐼,1.7,1
2013/9/16,7:00:00,11,���쐼,0.7,18,100,0,0.04,12,��,1.4,57
2013/9/16,8:00:00,16,�k,0.7,19.2,99.8,0,0.11,15,�k�k��,1.9,15
2013/9/16,9:00:00,2,�k��,1.4,19.4,99.4,0,0.11,3,���k��,2.8,51
2013/9/16,10:00:00,2,�k��,1,19.6,99,0,0.09,2,�k��,1.9,2
2013/9/16,11:00:00,16,�k,1.4,20,98.1,1.5,0.11,14,�k��,3.1,36
2013/9/16,12:00:00,3,���k��,2.3,19.6,97.4,2,0.1,3,���k��,3.3,49
2013/9/16,13:00:00,4,��,2.3,18.2,98.4,8,0.05,4,��,3.8,23
2013/9/16,14:00:00,3,���k��,3.5,18.5,99.2,9,0.03,3,���k��,6.3,45
2013/9/16,15:00:00,3,���k��,4.5,17.9,98.9,16.5,0.01,2,�k��,7.2,39
2013/9/16,16:00:00,2,�k��,4.1,17.6,99.1,21,0.01,3,���k��,7.7,0
2013/9/16,17:00:00,15,�k�k��,5.3,16.3,97.9,28,0,1,�k�k��,12.2,59
2013/9/16,18:00:00,15,�k�k��,5.8,16.2,97.6,16,0,15,�k�k��,14.9,15
2013/9/16,19:00:00,14,�k��,5.9,15.7,96,5,0,14,�k��,16.2,33
2013/9/16,20:00:00,15,�k�k��,5.4,15.4,95.4,5,0,15,�k�k��,13.2,35
2013/9/16,21:00:00,15,�k�k��,3.3,14.9,95.9,2.5,0,13,���k��,10.9,10
2013/9/16,22:00:00,13,���k��,6.3,14.8,94.4,1,0,12,��,10,51
2013/9/16,23:00:00,12,��,2.2,13.3,95.3,0,0,13,���k��,6.8,0
2013/9/16,0:00:00,11,���쐼,1.6,12,98.4,0,0,13,���k��,3.2,5
2013/9/17,1:00:00,12,��,2.2,11.9,99.5,0,0,13,���k��,3.4,57
2013/9/17,2:00:00,13,���k��,2,11.7,97.2,0,0,13,���k��,3.6,35
2013/9/17,3:00:00,12,��,2.4,11.1,96.7,0,0,11,���쐼,3.3,55
2013/9/17,4:00:00,12,��,2.1,10.5,98.4,0,0,12,��,3.5,47
2013/9/17,5:00:00,13,���k��,2.6,10.7,98.1,0,0,13,���k��,4.1,45
2013/9/17,6:00:00,11,���쐼,1.3,11.2,96.5,0,0.06,14,�k��,4.7,37
2013/9/17,7:00:00,12,��,1.8,14.5,89.2,0,0.23,13,���k��,3.2,31
2013/9/17,8:00:00,9,��쐼,2.4,17.5,72.5,0,0.43,9,��쐼,4.7,56
2013/9/17,9:00:00,11,���쐼,4.7,20.1,55.6,0,0.61,12,��,7.8,53
2013/9/17,10:00:00,11,���쐼,7.4,21.8,52.8,0,0.74,11,���쐼,12,55
2013/9/17,11:00:00,11,���쐼,6.6,23.6,48.6,0,0.82,12,��,13.5,49
2013/9/17,12:00:00,11,���쐼,5.1,24.3,45.2,0,0.79,12,��,12.4,48
2013/9/17,13:00:00,11,���쐼,4.5,24.3,44,0,0.69,11,���쐼,11.8,26
2013/9/17,14:00:00,11,���쐼,5.2,24.2,42.6,0,0.68,10,�쐼,12.7,28
2013/9/17,15:00:00,11,���쐼,5.5,23.6,47.1,0,0.55,11,���쐼,10.6,8
2013/9/17,16:00:00,11,���쐼,4.6,22,55.7,0,0.36,12,��,10.3,10
2013/9/17,17:00:00,11,���쐼,3.9,19.8,58.3,0,0.16,10,�쐼,7.3,19
2013/9/17,18:00:00,15,�k�k��,0.9,15.2,71,0,0.02,11,���쐼,6.4,0